Regional Weather Roundup
Issued by NWS Pendleton, OR

Home | Current Version | Previous Version | Text Only | Print | Product List | Glossary On
Versions: 1 2 3 4 5 6 7 8 9 10 11 12 13 14 15 16 17 18 19 20 21 22 23 24 25 26 27 28 29 30 31 32 33 34 35 36 37 38 39 40 41 42 43 44 45 46 47 48 49 50
000
ASUS46 KPDT 231225
RWRPDT
PENDLETON REGIONAL WEATHER ROUNDUP
NATIONAL WEATHER SERVICE PENDLETON OREGON
500 AM PDT FRI JUN 23 2017

NOTE: FAIR INDICATES FEW OR NO CLOUDS BELOW 12,000 FEET WITH NO
SIGNIFICANT WEATHER AND/OR OBSTRUCTIONS TO VISIBILITY.

# INDICATES UNOFFICIAL STATION AND DATA

WAZ520-231310-
EAST SLOPES OF WASHINGTON CASCADES

CITY            SKY/WX      TMP DP  RH  WIND    PRES   REMARKS
#BULLFROG       N/A         40  35  82  CALM    N/A
#CLE ELUM HS    N/A         43  39  86  CALM    30.18R
#CLE ELUM LAKE  N/A         51  42  71  CALM    30.26R
#EASTON DOT     N/A         44  41  89  CALM    N/A
#ELK HTS DOT    N/A         48  48  100 CALM    N/A
#GLENWOOD       N/A         40  38  92  CALM    30.17S
#NELSON 3SW     N/A         45  37  73  CALM    30.38R
#NILE           N/A         45  35  68  W3      29.51R
#TEANAWAY 4NE   N/A         42  40  93  CALM    N/A
#TROUT LAKE 1NE N/A         45  40  82  CALM    30.16S
#TROUT LAKE 1E  N/A         39  37  92  CALM    30.24S
$$

WAZ521-231310-
SIMCOE HIGHLANDS

CITY            SKY/WX      TMP DP  RH  WIND    PRES   REMARKS
#BICKLETON HS   N/A         49  35  58  W3      29.87R
#SATUS PASS DOT N/A         51  32  48  S2      N/A
#CENTERVILLE 1SWN/A         43  34  70  CALM    30.13R
#GOLDENDALE 1NE N/A         48  26  42  N2      N/A
#GOLDENDALE 4W  N/A         45  22  40  CALM    30.23R
#GOODNOE HILLS  N/A         58  33  39  NE2     N/A
#LYLE 6NE       N/A         54  42  64  N3      30.10S
#PITT 4SE       N/A         55  39  55  NE1     30.16S
$$

WAZ026-231310-
KITTITAS VALLEY

CITY            SKY/WX      TMP DP  RH  WIND    PRES   REMARKS
ELLENSBURG AP   CLEAR       47  38  71  CALM    30.23R
6HR MIN TEMP:   44; 6HR MAX TEMP:   62;

#ELLENSBURG CWU N/A         51  42  71  NW1     30.13R
#ELLENSBURG 3NE N/A         47  40  76  CALM    28.30R
#KITTITAS 3S    N/A         41  37  86  CALM    30.18R
#MANASTASH RDG  N/A         55  55  100 W13     N/A
#ROCKY CYN DOT  N/A         47  39  74  W3      N/A
#RYEGRASS DOT   N/A         51  36  56  W7      N/A
#THORP 6N       N/A         47  40  76  N3      30.19R
$$

WAZ027-231310-
YAKIMA VALLEY

CITY            SKY/WX      TMP DP  RH  WIND    PRES   REMARKS
SUNNYSIDE AP    CLEAR       44  40  86  N3      30.20R
YAKIMA AIRPORT  CLEAR       51  41  68  W7      30.21R
6HR MIN TEMP:   50; 6HR MAX TEMP:   61;

YAKIMA-VAGABOND CLEAR       49  36  61  NE3     30.20R
6HR MIN TEMP:   49; 6HR MAX TEMP:   67;

#DONALD 2NE     N/A         57  15  19  CALM    29.03R
#GRANDVIEW      N/A         50  40  68  CALM    30.18R
#MABTON         N/A         49  41  74  CALM    30.18R
#MOXEE 2E       N/A         49  N/A N/A CALM    30.15R
#NACHES 2SW     N/A         54  37  52  W6      30.22S
#OUTLOOK DOT    N/A         52  44  74  CALM    30.15R
#PARKER DOT     N/A         62  36  38  SE12    30.17S
#TERRACE HTS    N/A         51  41  68  CALM    30.12R
#TOPPENISH      N/A         54  45  71  CALM    30.08R
#I82 S UMTANUM RN/A         55  35  47  NE3     N/A
#UNION GAP DOT  N/A         59  37  44  N5      30.22S
#W YAKIMA       N/A         56  39  53  NW5     30.16R
#WHITE SWAN 5E  N/A         47  41  79  CALM    30.17R
#WILEY CITY 3W  N/A         51  36  56  CALM    30.19R
#ZILLAH DOT     N/A         50  43  77  CALM    N/A
$$

WAZ028-231310-
LOWER COLUMBIA BASIN...WASHINGTON

CITY            SKY/WX      TMP DP  RH  WIND    PRES   REMARKS
PASCO           CLEAR       46  43  89  N3      30.19R
6HR MIN TEMP:   45; 6HR MAX TEMP:   60;

PROSSER AWOS    N/A         48  43  83  CALM    30.22R
RICHLAND AWOS   CLEAR       53  45  74  CALM    30.19R
#BENTON CITY    N/A         52  37  56  CALM    30.07R
#CONNELL 5N     N/A         44  37  76  CALM    30.16S
#CONNELL 5NW    N/A         48  39  71  E1      30.11S
#ELTOPIA 6NW    N/A         55  41  59  CALM    29.15S
#KAHLOTUS       N/A         47  37  68  S10     30.16R
#KENNEWICK 3S   N/A         55  42  61  CALM    30.16R
#PATERSON       N/A         52  44  74  CALM    30.15R
#PROSSER DOT    N/A         49  44  83  CALM    30.18S
#SAGEMOOR 2W    N/A         53  42  66  CALM    30.03R
#TOUCHET 2S     N/A         40  37  89  CALM    30.16R
#WEST PASCO     N/A         52  44  74  E1      30.19R
$$

WAZ029-231310-
FOOTHILLS OF THE BLUES...WASHINGTON

CITY            SKY/WX      TMP DP  RH  WIND    PRES   REMARKS
WALLA WALLA AP  CLEAR       57  38  49  E6      30.19R
6HR MIN TEMP:   54; 6HR MAX TEMP:   65;

#CLYDE 6NW      N/A         45  35  68  CALM    30.16R
#DELANEY DOT    N/A         42  37  82  SE1     30.22R
#LOWDEN 2SE     N/A         45  43  93  CALM    30.16R
#PLEASANT VIEW 1N/A         53  35  50  CALM    30.19R
#PRESCOTT       N/A         47  41  79  CALM    30.17R
#WHITMAN COLLEGEN/A         58  41  53  CALM    30.21R
#WAITSBURG 5S   N/A         47  39  74  N1      30.26R
#WAITSBURG 6SSE N/A         47  37  68  SE3     30.19R
#WAITSBURG 8N   N/A         43  N/A N/A CALM    30.15S
#WALLA WALLA 5E N/A         49  41  74  NE2     N/A
#WALLA WALLA U  N/A         54  44  69  CALM    30.16S
#WHITMAN MISSIONN/A         47  44  89  CALM    30.20R
$$

WAZ030-231310-
BLUE MOUNTAINS...WASHINGTON

CITY            SKY/WX      TMP DP  RH  WIND    PRES   REMARKS
#DIXIE 5SE      N/A         61  30  31  E6      30.16R
$$

ORZ009-041-WAZ024-231310-
COLUMBIA RIVER GORGE

CITY            SKY/WX      TMP DP  RH  WIND    PRES   REMARKS
HOOD RIVER AP   CLEAR       50  43  77  CALM    30.19R
THE DALLES AP   CLEAR       51  43  74  E7      30.17R
6HR MIN TEMP:   51; 6HR MAX TEMP:   67;

#ARLINGTON AIRPON/A         56  35  45  SE1     30.16R
#CELILO DOT     N/A         57  38  49  CALM    N/A
#LYLE           N/A         57  43  59  N5      30.17R
#MARYHILL       N/A         56  36  47  N1      N/A
#RUFUS DOT      N/A         58  N/A N/A S3      N/A
#SMITHVILLE     N/A         48  43  83  CALM    30.12R

$$

ORZ510-231310-
NORTH CENTRAL OREGON

CITY            SKY/WX      TMP DP  RH  WIND    PRES   REMARKS
#ANTELOPE       N/A         46  31  56  NE1     30.01S
#CHENOWITH 1W   N/A         51  35  54  NW14    N/A
#COW CYN RST AREN/A         59  28  30  N2      N/A
#DUFUR          N/A         44  38  79  CALM    30.13R
#DUFUR 9E       N/A         62  34  35  SE2     30.17S
#GRASS VALLEY 1SN/A         49  35  58  CALM    30.20S
#MAUPIN SCHOOL  N/A         53  37  54  CALM    30.23R
#MORO SCHOOL    N/A         47  39  74  CALM    30.27S
#SHANIKO 5WSW   N/A         60  27  28  N8      N/A
#SHANIKO 4NW    N/A         57  26  30  E9      30.23S
#TYGH VALLEY 2NEN/A         50  38  63  CALM    30.14S
#WAPANITIA AIRPON/A         49  37  63  NW1     30.16R
#WASCO DOT      N/A         43  37  79  E1      N/A
#WASCO 5NE      N/A         47  37  68  CALM    30.14S
$$

ORZ511-231310-
CENTRAL OREGON

CITY            SKY/WX      TMP DP  RH  WIND    PRES   REMARKS
BEND AIRPORT    PTCLDY      N/A N/A N/A CALM    30.25R
MADRAS AIRPORT  CLEAR       41  32  70  SE6     30.23R
PRINEVILLE AP   PTCLDY      37  27  67  CALM    30.24R
REDMOND AIRPORT PTCLDY      42  26  53  S6      30.23R
6HR MIN TEMP:   40; 6HR MAX TEMP:   61;

#ASHWOOD SCHOOL N/A         48  32  54  S3      30.17S
#BEND 1SW       N/A         40  30  67  SE1     N/A
#BEND-AWBREY    N/A         52  33  48  CALM    30.11R
#BEND-KIM LN    N/A         48  30  49  W5      30.07R
#CULVER         N/A         46  34  63  CALM    30.06R
#CULVER 8W      N/A         51  32  48  CALM    30.19R
#LAKE BILLY CHINN/A         50  N/A N/A CALM    30.16R
#MADRAS 4S      N/A         45   4  18  CALM    N/A
#POWELL BUTTE   N/A         54  25  32  S1      30.16S
#PRINEVILLE     N/A         44  35  70  CALM    30.23R
#PRINEVILLE 3N  N/A         40  34  79  E1      30.13R
#WARM SPRINGS   N/A         47  35  63  CALM    30.03R

$$


ORZ509-231310-
EAST SLOPES OF OREGON CASCADES

CITY            SKY/WX      TMP DP  RH  WIND    PRES   REMARKS
SISTERS AWOS    N/A         39  30  70  CALM    30.19S
#BLUE BOX PASS  N/A         54  N/A N/A CALM    N/A
#CAMP SHERMAN   N/A         35  29  78  CALM    30.23R
#LA PINE 4NW    N/A         37  26  64  CALM    30.14R
#LAVA BUTTE DOT N/A         43  27  53  NE2     N/A
#SISTERS ODOT   N/A         33  25  72  CALM    N/A
#SISTERS 3N     N/A         36  22  56  CALM    30.20S
#SUNRIVER       N/A         42  32  67  CALM    30.13R
#TUMALO 3W      N/A         56  29  35  NW2     29.99R
#WANOGA BUTTE D N/A         49  21  33  NE6     N/A

$$

ORZ044-231310-
LOWER COLUMBIA BASIN...OREGON

CITY            SKY/WX      TMP DP  RH  WIND    PRES   REMARKS
HERMISTON       CLEAR       48  42  80  CALM    30.17S
6HR MIN TEMP:   46; 6HR MAX TEMP:   60;

#BOARDMAN SCHOOLN/A         47  40  76  CALM    30.16R
#ECHO 8SW       N/A         47  42  83  CALM    30.18S
#I-84 EX 198 DOTN/A         53  40  61  NE10    N/A
#IONE SCHOOL    N/A         51  35  54  CALM    30.16S
#UMATILLA       N/A         52  41  66  CALM    30.10R
$$

ORZ507-231310-
NORTHERN FOOTHILLS OF THE BLUES

CITY            SKY/WX      TMP DP  RH  WIND    PRES   REMARKS
PENDLETON AIRPT CLEAR       47  40  76  E9      30.19S
6HR MIN TEMP:   47; 6HR MAX TEMP:   60;

#ADAMS 3WNW     N/A         39  36  89  CALM    30.19R
#ATHENA         N/A         42  37  82  CALM    30.20R
#CAYUSE         N/A         53  40  61  E8      30.16R
#HELIX SCHOOL   N/A         44  38  79  CALM    30.17R
#HELIX 3N       N/A         50  37  61  CALM    30.17R
#HOLDMAN 5SE    N/A         46  39  76  CALM    30.18R
#HOLDMAN 6E     N/A         52  41  66  CALM    29.96S
#M-F GROVE ELEM N/A         55  35  47  SW2     30.16R
#M-FREEWATER 5SEN/A         56  39  53  NE5     30.18S
#PENDLETON DNTN N/A         48  35  60  E1      30.19S
#PDT AQUATIC CTRN/A         47  37  68  CALM    30.16S
#PDT SUNRIDGE   N/A         43  39  86  CALM    30.21R
#PENDLETON 7NW  N/A         49  40  71  E7      N/A
#PILOT ROCK 1S  N/A         53  34  48  CALM    30.21R
#PILOT ROCK     N/A         49  37  63  CALM    30.21S
#TUTUILLA       N/A         42  38  86  CALM    30.25R
#UMAPINE 2E     N/A         46  41  83  CALM    30.16R
#WESTON SCHOOL  N/A         53  34  48  CALM    30.13R

$$

ORZ508-231310-
SOUTHERN FOOTHILLS OF THE BLUES

CITY            SKY/WX      TMP DP  RH  WIND    PRES   REMARKS
LEXINGTON       CLEAR       52  37  56  SE10    30.22S
#AJAX           N/A         60  27  28  CALM    30.32F
#HEPPNER EOC    N/A         51  36  56  E9      30.09S
#HEPPNER 4NE    N/A         52  36  54  E5      30.15R
#MIKKALO        N/A         52  31  44  SE5     30.28F
#OLEX 4N        N/A         51  34  52  S2      30.16R
#RUGGS 5NE      N/A         48  30  49  CALM    30.40S
#RUGGS 2SW      N/A         52  32  46  S7      30.16S

$$

ORZ502-503-231310-
BLUE MOUNTAINS

CITY            SKY/WX      TMP DP  RH  WIND    PRES   REMARKS
MEACHAM         CLEAR       34  30  85  CALM    30.26S
6HR MIN TEMP:   34; 6HR MAX TEMP:   45;

#BATTLE MTN DOT N/A         44  34  68  W2      N/A
#CUTSFORTH PARK N/A          0  -78  1  CALM    30.03S
#GRANITE        N/A         29  21  72  CALM    30.19R
#GREENHORN 9SW  N/A         32  31  96  CALM    30.25R
#HARDMAN 10S    N/A         48  32  54  CALM    30.25F
#HEPPNER 15SE   N/A         42  35  76  CALM    30.13S
#LADD CYN SMT   N/A         42  34  73  W2      N/A
#LADD CREEK ODOTN/A         45  36  70  SW3     N/A
#LONG CREEK HS  N/A         41  38  89  CALM    N/A
#N POWDER DOT   N/A         40  38  92  W3      N/A
#PIKES PEAK     N/A         60  26  27  CALM    27.99S
#SUMMERVILLE 5NWN/A         43  37  79  CALM    30.22R
#TOLLGATE       N/A         43  31  62  CALM    30.11S
#TROY SCHOOL    N/A         46  41  83  CALM    30.08R
#UKIAH          N/A         32  30  92  CALM    30.16R
#WESTON 4E      N/A         55  32  41  CALM    30.13R
$$

ORZ505-231310-
JOHN DAY BASIN

CITY            SKY/WX      TMP DP  RH  WIND    PRES   REMARKS
JOHN DAY        CLEAR       46  34  63  CALM    30.25S
#JOHN DAY KJDY  N/A         43  N/A N/A CALM    30.43F
#ANTELOPE 9ESE  N/A         48  32  54  SW1     N/A
#DAYVILLE SCHOOLN/A         46  32  58  CALM    30.19R
#MITCHELL       N/A         45  32  60  CALM    30.37S
#MITCHELL 8NW   N/A         57  29  34  CALM    30.13R
#MONUMENT HS    N/A         45  35  68  CALM    30.18R
#MT. VERNON 5SE N/A         45  31  58  CALM    30.19S
#SPRAY SCHOOL   N/A         44  N/A N/A CALM    N/A
$$

ORZ506-231310-
OCHOCO AND JOHN DAY HIGHLANDS

CITY            SKY/WX      TMP DP  RH  WIND    PRES   REMARKS
#HORSE RIDGE DO N/A         29  17  60  CALM    N/A
#PAULINA ODOT   N/A         42  28  57  CALM    N/A
#PINE MTN OBS   N/A         51  15  23  NE1     N/A
#PRAIRIE CITY   N/A         35  31  85  CALM    30.38R
#SENECA         N/A         36  N/A N/A CALM    N/A
#SENECA 9NW     N/A         32  28  85  CALM    30.11R
$$

ORZ049-231310-
GRANDE RONDE VALLEY

CITY            SKY/WX      TMP DP  RH  WIND    PRES   REMARKS
LA GRANDE       CLEAR       45  34  65  CALM    30.23R
#COVE           N/A         40  37  89  CALM    30.24S
#COVE SCHOOL    N/A         39  35  85  CALM    30.23R
#COVE 6NW       N/A         39  34  82  CALM    30.18R
#ELGIN 3N       N/A         41  34  76  N1      30.21R
#ELGIN 1E       N/A         41  35  79  CALM    N/A
#IMBLER SCHOOL  N/A         46  36  68  CALM    30.19R
#ISLAND CITY 4N N/A         54  42  64  CALM    30.13F
#LA GRANDE-LEFFEN/A         48  36  63  E1      30.22R
#UNION 1S       N/A         41  35  79  CALM    30.17R
$$

ORZ050-231310-
WALLOWA COUNTY

CITY            SKY/WX      TMP DP  RH  WIND    PRES   REMARKS
JOSEPH AIRPORT  CLEAR       45  32  60  S8      30.29R
#ENTERPRISE HS  N/A         38  34  85  CALM    30.09R
#IMNAHA SCHOOL  N/A         47  39  74  SE1     30.25R
#IMNAHA 10S     N/A         46  36  68  SW2     30.25R
#JOSEPH         N/A         46  33  60  SW2     30.22S
#JOSEPH 3N      N/A         36  29  75  CALM    30.27S
#JOSEPH 3W      N/A         47  36  65  SW2     30.09S
#LOSTINE        N/A         37  33  85  CALM    30.00R
#LOSTINE 3SE    N/A         41  34  76  S2      30.30R
#MT HOWARD 8000 N/A         37  25  61  CALM    30.37R
#PROMISE 1S     N/A         42  36  79  S1      30.29R
#WALLOWA LAKE   N/A         47  33  58  S2      30.31R
#WALLOWA SCHOOL N/A         37  34  89  CALM    30.22R



$$



USA.gov is the U.S. government's official web portal to all federal, state and local government web resources and services.